Terminal Aerodrome Forecast
Issued by NWS Amarillo, TX

Home | Current Version | Previous Version | Text Only | Print | Product List | Glossary On
Versions: 1 2 3 4 5 6 7 8 9 10 11 12 13 14
000
FTUS44 KAMA 212300
TAFAMA
TAF
KAMA 212320Z 2200/2224 30015G25KT P6SM VCTS BKN080CB
     FM220100 19014KT P6SM SCT150
     FM221500 20016G22KT P6SM SKC=

USA.gov is the U.S. government's official web portal to all federal, state and local government web resources and services.